Flag for Germany Weather past 2 weeks in Paderborn, North Rhine-Westphalia, Germany

Now
50 °F

Clear.


Feels Like: 47 °F
Forecast: 49 / 60 °F
Wind: 8 mph from South

Location: Paderborn / Lippstadt

Current Time: May 28, 2015 at 12:22:05 AM

Latest Report: May 27, 2015 at 11:20 PM


Visibility: 10 mi

Pressure: 30.09 "Hg

Humidity: 58%

Dew point: 36 °F

Location of PaderbornLocation

Historic Weather in Paderborn — Graph

°F

Paderborn temperature yesterday

Maximum temperature yesterday: 57 °F (at 3:20 PM)
Minimum temperature yesterday: 43 °F (at 2:50 AM)
Average temperature yesterday: 50 °F

Past Weeks' High & Low Weather Summary

 TemperatureHumidityPressure
High68 °F (May 18, 3:50 PM)100% (May 16, 7:20 PM)30.33 "Hg (May 16, 7:20 PM)
Low37 °F (May 15, 3:50 AM)31% (May 19, 3:50 PM)29.62 "Hg (May 18, 9:20 PM)
Average51 °F67%30.06 "Hg
* Reported May 12 11:20 PM — May 27 11:20 PM, Paderborn, Weather by CustomWeather, © 2015

Note: Actual official high and low records may vary slightly from our data, if they occured in-between our weather recording intervals... More about our weather records

Advertising

Paderborn weather history for previous 24 hours

 ConditionsComfort  
Time TempWeatherWind HumidityBarometerVisibility
11:20 PM
Wed, May 27
50 °FClear.8 mph58%30.09 "Hg10 mi
10:20 PM50 °FSunny.7 mph58%30.09 "Hg10 mi
9:50 PM52 °FSunny.7 mph54%30.12 "Hg10 mi
9:20 PM52 °FSunny.5 mph54%30.12 "Hg10 mi
8:50 PM54 °FSunny.5 mph54%30.12 "Hg10 mi
8:20 PM54 °FSunny.5 mph54%30.12 "Hg10 mi
7:50 PM55 °FSunny.7 mph47%30.15 "Hg10 mi
7:20 PM57 °FSunny.7 mph44%30.15 "Hg10 mi
6:50 PM57 °FPassing clouds.6 mph41%30.15 "HgN/A
6:20 PM57 °FPassing clouds.6 mph44%30.18 "HgN/A
5:50 PM57 °FPassing clouds.7 mph41%30.18 "HgN/A
5:20 PM55 °FPassing clouds.6 mph44%30.18 "HgN/A
4:50 PM57 °FPassing clouds.5 mph39%30.18 "HgN/A
4:20 PM57 °FPassing clouds.7 mph41%30.18 "HgN/A
3:50 PM57 °FPassing clouds.6 mph39%30.18 "HgN/A
3:20 PM57 °FPassing clouds.6 mph39%30.21 "HgN/A
2:50 PM55 °FSunny.7 mph41%30.21 "Hg10 mi
2:20 PM52 °FPartly sunny.7 mph50%30.21 "HgN/A
1:50 PM54 °FPassing clouds.7 mph47%30.21 "HgN/A
1:20 PM54 °FBroken clouds.7 mph51%30.24 "HgN/A
12:50 PM52 °FBroken clouds.6 mph54%30.24 "HgN/A
12:20 PM54 °FBroken clouds.9 mph54%30.24 "HgN/A
11:50 AM52 °FPartly sunny.9 mph62%30.24 "HgN/A
11:20 AM50 °FPartly sunny.8 mph67%30.24 "HgN/A
10:50 AM50 °FPartly sunny.7 mph71%30.24 "HgN/A
10:20 AM48 °FBroken clouds.6 mph71%30.24 "HgN/A
9:50 AM48 °FBroken clouds.7 mph71%30.24 "HgN/A
9:20 AM48 °FBroken clouds.7 mph71%30.24 "HgN/A
8:50 AM46 °FBroken clouds.6 mph76%30.24 "HgN/A
8:20 AM46 °FPassing clouds.5 mph76%30.24 "HgN/A
7:50 AM46 °FPassing clouds.6 mph76%30.24 "HgN/A
7:20 AM45 °FPassing clouds.6 mph81%30.24 "HgN/A
6:50 AM45 °FSunny.3 mph81%30.24 "Hg10 mi
6:20 AM45 °FPartly sunny.5 mph81%30.21 "HgN/A
5:50 AM45 °FPassing clouds.5 mph81%30.21 "HgN/A
5:20 AM45 °FPassing clouds.3 mph81%30.21 "HgN/A
4:50 AM45 °FPassing clouds.3 mph81%30.21 "HgN/A
4:20 AM45 °FPassing clouds.5 mph81%30.21 "HgN/A
3:50 AM45 °FPassing clouds.5 mph81%30.21 "HgN/A
3:20 AM43 °FPassing clouds.5 mph87%30.21 "HgN/A
2:50 AM43 °FPassing clouds.3 mph81%30.21 "HgN/A
2:20 AM45 °FPassing clouds.5 mph76%30.21 "HgN/A
1:50 AM45 °FPassing clouds.5 mph76%30.21 "HgN/A
1:20 AM45 °FPassing clouds.3 mph76%30.21 "HgN/A
12:50 AM45 °FPassing clouds.3 mph81%30.21 "HgN/A
12:20 AM45 °FPassing clouds.6 mph76%30.21 "HgN/A
Weather by CustomWeather, © 2015

See weather overviewHow to use our weather pages